K5LLL-13 Weather Reports


time (UTC)temp
C
wind
direction
speed
KPH
gust
KPH
rain 1hr
cm
rain 24hr
cm
rain mn
cm
humidity
%
barometer
mb
20260510000017 29 90 6.4 22.5 0.00 0.03 0.03 70 1009.6
20260509235038 30 90 1.6 9.7 0.00 0.03 0.03 68 1009.7
20260509234017 30 90 4.8 9.7 0.00 0.03 0.03 65 1009.7
20260509233017 30 113 4.8 14.5 0.00 0.03 0.03 65 1009.5
20260509232017 30 90 3.2 11.3 0.00 0.03 0.03 65 1009.5
20260509231017 31 90 1.6 6.4 0.00 0.03 0.03 64 1009.4
20260509230017 31 68 1.6 6.4 0.00 0.03 0.03 64 1009.3
20260509225017 31 45 1.6 4.8 0.00 0.03 0.03 64 1009.1
20260509224017 30 0.0 4.8 0.00 0.03 0.03 66 1009.0
20260509223037 30 0.0 3.2 0.00 0.03 0.03 67 1009.1
20260509222017 29 293 3.2 4.8 0.00 0.03 0.03 71 1008.8
20260509221016 28 0.0 6.4 0.00 0.03 0.03 77 1008.9
20260509220017 27 315 1.6 4.8 0.00 0.03 0.03 77 1009.0
20260509215017 27 0.0 3.2 0.00 0.03 0.03 77 1009.2
20260509214017 27 315 1.6 6.4 0.00 0.03 0.03 76 1009.2
20260509213016 28 315 3.2 8.0 0.00 0.03 0.03 75 1009.3
20260509212017 28 315 3.2 9.7 0.00 0.03 0.03 74 1009.3
20260509211017 28 315 3.2 8.0 0.00 0.03 0.03 72 1009.5
20260509210036 28 315 1.6 6.4 0.00 0.03 0.03 71 1009.4
20260509205016 29 315 1.6 8.0 0.00 0.03 0.03 71 1009.6
20260509204016 29 315 4.8 9.7 0.00 0.03 0.03 69 1009.8
20260509203016 30 315 3.2 8.0 0.00 0.03 0.03 67 1009.6
20260509202017 30 293 1.6 4.8 0.00 0.03 0.03 66 1010.0
20260509201017 30 225 1.6 6.4 0.00 0.03 0.03 63 1010.2
20260509200016 31 270 6.4 9.7 0.00 0.03 0.03 64 1010.4
20260509195017 30 293 6.4 14.5 0.00 0.03 0.03 65 1010.3
20260509194016 30 270 6.4 12.9 0.00 0.03 0.03 65 1010.3
20260509193016 30 270 1.6 6.4 0.00 0.03 0.03 66 1010.2
20260509192017 30 270 3.2 9.7 0.00 0.03 0.03 65 1010.4
20260509191016 30 248 3.2 8.0 0.00 0.03 0.03 67 1010.5
20260509190017 30 225 3.2 8.0 0.00 0.03 0.03 66 1010.9
20260509185016 29 248 4.8 12.9 0.00 0.03 0.03 69 1011.2
20260509184016 29 0.0 1.6 0.00 0.03 0.03 71 1011.3
20260509183037 28 0.0 1.6 0.00 0.03 0.03 73 1011.5
20260509182017 28 248 1.6 6.4 0.00 0.03 0.03 73 1011.6
20260509181016 28 270 3.2 6.4 0.00 0.03 0.03 74 1011.6
20260509180016 28 293 3.2 12.9 0.00 0.03 0.03 73 1011.7
20260509175016 28 0.0 3.2 0.00 0.03 0.03 76 1011.8
20260509174016 27 293 3.2 8.0 0.00 0.03 0.03 78 1012.0
20260509173016 27 293 4.8 14.5 0.00 0.03 0.03 78 1012.3
20260509172016 27 315 3.2 9.7 0.00 0.03 0.03 80 1012.3
20260509171017 27 338 3.2 9.7 0.00 0.03 0.03 80 1012.2
20260509170016 27 270 6.4 11.3 0.00 0.03 0.03 80 1012.2
20260509165016 27 248 4.8 14.5 0.00 0.03 0.03 83 1012.1
20260509164016 27 203 3.2 11.3 0.00 0.03 0.03 84 1012.0
20260509163016 26 225 8.0 16.1 0.00 0.03 0.03 84 1011.7
20260509162016 26 225 8.0 19.3 0.00 0.03 0.03 85 1011.7
20260509161016 25 203 11.3 22.5 0.00 0.03 0.03 86 1011.8
20260509160016 25 180 9.7 17.7 0.00 0.03 0.03 88 1011.9
20260509155016 25 203 8.0 14.5 0.00 0.03 0.03 89 1012.0
20260509154016 25 180 3.2 12.9 0.00 0.03 0.03 90 1012.1
20260509153016 25 203 8.0 14.5 0.00 0.03 0.03 91 1011.9
20260509152016 24 225 4.8 11.3 0.00 0.03 0.03 92 1011.9
20260509151016 24 203 8.0 14.5 0.00 0.03 0.03 94 1011.8
20260509150016 23 158 8.0 12.9 0.00 0.03 0.03 96 1011.7
20260509145016 23 180 6.4 14.5 0.00 0.03 0.03 98 1011.5
20260509144016 23 135 4.8 14.5 0.00 0.03 0.03 99 1011.6
20260509143016 23 158 4.8 12.9 0.00 0.03 0.03 99 1011.6
20260509142017 22 135 1.6 6.4 0.00 0.03 0.03 99 1011.5
20260509141016 22 0.0 1.6 0.00 0.03 0.03 99 1011.6
20260509140016 22 135 1.6 4.8 0.00 0.03 0.03 99 1011.6
20260509135016 22 135 3.2 9.7 0.00 0.03 0.03 99 1011.6
20260509134016 22 158 3.2 8.0 0.00 0.03 0.03 99 1012.0
20260509133016 22 203 1.6 4.8 0.00 0.03 0.03 99 1011.7
20260509132036 22 135 4.8 11.3 0.00 0.03 0.03 99 1011.7
20260509131016 22 135 3.2 8.0 0.00 0.03 0.03 99 1011.5
20260509130016 22 135 1.6 4.8 0.00 0.03 0.03 99 1011.5
20260509125016 22 0.0 3.2 0.03 0.03 0.03 99 1011.5
20260509124016 22 0.0 1.6 0.03 0.03 0.03 99 1011.4
20260509123016 22 0.0 0.0 0.03 0.03 0.03 99 1011.5
20260509122016 22 0.0 3.2 0.03 0.03 0.03 99 1011.3
20260509121015 22 0.0 1.6 0.03 0.03 0.03 99 1011.5
20260509120016 22 0.0 4.8 0.03 0.03 0.03 99 1011.3
20260509115015 22 338 1.6 6.4 0.00 0.00 0.00 99 1011.4
20260509114015 22 0.0 4.8 0.00 0.00 0.00 99 1011.3
20260509113016 22 315 1.6 4.8 0.00 0.00 0.00 99 1011.4
20260509112016 22 0.0 3.2 0.00 0.00 0.00 99 1011.6
20260509111015 22 0.0 3.2 0.00 0.00 0.00 99 1012.2
20260509110016 22 0.0 1.6 0.00 0.00 0.00 99 1012.2
20260509105016 22 203 1.6 4.8 0.00 0.00 0.00 99 1011.8
20260509104015 22 0.0 1.6 0.00 0.00 0.00 99 1011.9
20260509103015 22 0.0 1.6 0.00 0.00 0.00 99 1012.4
20260509102036 22 23 1.6 4.8 0.00 0.00 0.00 99 1012.4
20260509101017 22 0.0 1.6 0.00 0.00 0.00 99 1011.8
20260509100015 22 0.0 1.6 0.00 0.00 0.00 98 1011.2
20260509095055 22 0.0 0.0 0.00 0.00 0.00 98 1011.1
20260509094015 22 0.0 1.6 0.00 0.00 0.00 98 1011.1
20260509093015 22 0.0 1.6 0.00 0.00 0.00 98 1011.0
20260509092015 22 0.0 1.6 0.00 0.00 0.00 98 1010.9
20260509091015 22 0.0 1.6 0.00 0.00 0.00 98 1010.8
20260509090015 22 0.0 1.6 0.00 0.00 0.00 98 1011.1
20260509085035 22 0.0 0.0 0.00 0.00 0.00 98 1011.4
20260509084015 22 0.0 0.0 0.00 0.00 0.00 98 1011.4
20260509083015 22 0.0 0.0 0.00 0.00 0.00 97 1011.6
20260509082016 22 0.0 0.0 0.00 0.00 0.00 97 1011.8
20260509081015 22 0.0 3.2 0.00 0.00 0.00 97 1011.6
20260509080015 22 45 1.6 4.8 0.00 0.00 0.00 97 1011.8
20260509075035 22 0.0 0.0 0.00 0.00 0.00 97 1012.0
20260509074015 22 0.0 0.0 0.00 0.00 0.00 97 1011.8
20260509073015 22 0.0 1.6 0.00 0.00 0.00 97 1011.5
20260509072015 22 113 1.6 8.0 0.00 0.00 0.00 97 1011.6
20260509071015 22 158 1.6 6.4 0.00 0.00 0.00 97 1011.5
20260509070019 22 135 3.2 9.7 0.00 0.00 0.00 97 1011.4
20260509065017 22 135 3.2 9.7 0.00 0.00 0.00 97 1011.5
20260509064015 22 158 6.4 14.5 0.00 0.00 0.00 97 1011.5
20260509063017 22 135 4.8 11.3 0.00 0.00 0.00 96 1011.6
20260509062017 22 135 3.2 9.7 0.00 0.00 0.00 96 1011.3
20260509061037 22 135 4.8 14.5 0.00 0.00 0.00 96 1011.4
20260509060037 22 135 8.0 19.3 0.00 0.00 0.00 96 1011.6
20260509055017 22 135 6.4 16.1 0.00 0.00 0.00 96 1011.5
20260509054017 22 135 4.8 12.9 0.00 0.00 0.00 95 1011.5
20260509053017 22 135 6.4 12.9 0.00 0.00 0.00 95 1011.1
20260509052037 22 135 11.3 20.9 0.00 0.00 0.00 95 1011.2
20260509051017 22 135 11.3 20.9 0.00 0.00 0.00 94 1011.0
20260509050037 22 135 12.9 20.9 0.00 0.00 0.00 94 1011.1
20260509045015 22 135 3.2 9.7 0.00 0.00 0.00 94 1011.3
20260509044015 22 135 9.7 19.3 0.00 0.00 0.00 93 1011.0
20260509043015 22 135 9.7 19.3 0.00 0.00 0.00 93 1011.0
20260509042015 22 135 4.8 14.5 0.00 0.00 0.00 93 1011.2
20260509041036 22 135 3.2 9.7 0.00 0.00 0.00 93 1011.3
20260509040015 22 113 3.2 11.3 0.00 0.00 0.00 93 1011.1
20260509035015 23 113 3.2 8.0 0.00 0.00 0.00 92 1011.1
20260509034015 23 113 3.2 8.0 0.00 0.00 0.00 91 1010.8
20260509033035 23 113 1.6 8.0 0.00 0.00 0.00 91 1011.1
20260509032035 23 135 3.2 9.7 0.00 0.00 0.00 91 1010.9
20260509031015 23 113 6.4 14.5 0.00 0.00 0.00 90 1010.8
20260509030015 23 113 4.8 11.3 0.00 0.00 0.00 90 1010.7
20260509025015 23 113 3.2 11.3 0.00 0.00 0.00 90 1010.7
20260509024015 23 113 3.2 11.3 0.00 0.00 0.00 90 1010.6
20260509023015 23 90 1.6 6.4 0.00 0.00 0.00 89 1010.5
20260509022017 23 0.0 3.2 0.00 0.00 0.00 89 1010.4
20260509021017 23 0.0 1.6 0.00 0.00 0.00 89 1010.2
20260509020037 23 0.0 3.2 0.00 0.00 0.00 89 1009.9
20260509015017 23 0.0 1.6 0.00 0.00 0.00 88 1010.1
20260509014037 23 0.0 1.6 0.00 0.00 0.00 87 1010.1
20260509013017 23 0.0 1.6 0.00 0.00 0.00 87 1010.0
20260509012018 24 0.0 1.6 0.00 0.00 0.00 86 1010.1
20260509011017 24 0.0 3.2 0.00 0.00 0.00 86 1010.2
20260509010017 24 0.0 4.8 0.00 0.00 0.00 85 1009.9
20260509005017 24 90 4.8 11.3 0.00 0.00 0.00 85 1009.9
20260509004017 25 113 1.6 6.4 0.00 0.00 0.00 84 1009.9
20260509003017 25 68 1.6 4.8 0.00 0.00 0.00 84 1009.9
20260509002037 25 90 1.6 8.0 0.00 0.00 0.00 83 1009.9
20260509001017 25 113 3.2 8.0 0.00 0.00 0.00 83 1009.9